• In United Kingdom
  • List of Countries
  • For 7 days
  • Water Temperature
  • Satellite Maps
  • Weather Map
  • Weather Widgets
  • user-avatar
    Login

    Hourly Weather Neuquén

    Today, 18 January, Thursday

    Time Temperature Precipitation Wind Pressure Humidity
    00:00 +28°C° 0 mm 7 mps 734 mmHg 26%
    01:00 +27°C° 0 mm 6 mps 734 mmHg 28%
    02:00 +26°C° 0 mm 5 mps 734 mmHg 30%
    03:00 +25°C° 0 mm 4 mps 734 mmHg 32%
    04:00 +24°C° 0 mm 3 mps 735 mmHg 33%
    05:00 +25°C° 0 mm 3 mps 735 mmHg 32%
    06:00 +26°C° 0 mm 3 mps 735 mmHg 31%
    07:00 +26°C° 0 mm 3 mps 736 mmHg 29%
    08:00 +27°C° 0 mm 2 mps 736 mmHg 27%
    09:00 +28°C° 0 mm 1 mps 736 mmHg 25%
    10:00 +29°C° 0 mm 1 mps 735 mmHg 23%
    11:00 +30°C° 0 mm 1 mps 735 mmHg 21%
    12:00 +31°C° 0 mm 2 mps 734 mmHg 19%
    13:00 +34°C° 0 mm 2 mps 734 mmHg 17%
    14:00 +34°C° 0 mm 2 mps 733 mmHg 16%
    15:00 +35°C° 0 mm 3 mps 733 mmHg 15%
    16:00 +35°C° 0 mm 3 mps 732 mmHg 14%
    17:00 +35°C° 0 mm 3 mps 732 mmHg 14%
    18:00 +35°C° 0 mm 2 mps 732 mmHg 15%
    19:00 +34°C° 0 mm 2 mps 732 mmHg 15%
    20:00 +34°C° 0 mm 2 mps 732 mmHg 16%
    21:00 +32°C° 0 mm 2 mps 733 mmHg 17%
    22:00 +31°C° 0 mm 2 mps 733 mmHg 18%
    23:00 +31°C° 0 mm 2 mps 733 mmHg 18%

    Tomorrow, 19 January, Friday

    Time Temperature Precipitation Wind Pressure Humidity
    00:00 +30°C° 0 mm 2 mps 733 mmHg 19%
    01:00 +30°C° 0 mm 2 mps 733 mmHg 19%
    02:00 +29°C° 0 mm 3 mps 733 mmHg 20%
    03:00 +29°C° 0 mm 3 mps 733 mmHg 21%
    04:00 +28°C° 0 mm 4 mps 733 mmHg 22%
    05:00 +29°C° 0 mm 5 mps 734 mmHg 21%
    06:00 +29°C° 0 mm 7 mps 734 mmHg 21%
    07:00 +29°C° 0 mm 8 mps 734 mmHg 21%
    08:00 +32°C° 0 mm 8 mps 734 mmHg 20%
    09:00 +33°C° 0 mm 8 mps 734 mmHg 19%
    10:00 +35°C° 0 mm 8 mps 734 mmHg 17%
    11:00 +36°C° 0 mm 6 mps 734 mmHg 16%
    12:00 +37°C° 0 mm 5 mps 733 mmHg 15%
    13:00 +38°C° 0 mm 4 mps 733 mmHg 14%
    14:00 +40°C° 0 mm 4 mps 732 mmHg 14%
    15:00 +39°C° 0 mm 3 mps 731 mmHg 13%
    16:00 +40°C° 0 mm 3 mps 730 mmHg 13%
    17:00 +39°C° 0 mm 3 mps 730 mmHg 13%
    18:00 +40°C° 0 mm 4 mps 730 mmHg 14%
    19:00 +39°C° 0 mm 5 mps 730 mmHg 14%
    20:00 +39°C° 0 mm 5 mps 730 mmHg 15%
    21:00 +38°C° 0 mm 6 mps 730 mmHg 15%
    22:00 +36°C° 0 mm 7 mps 730 mmHg 16%
    23:00 +35°C° 0 mm 7 mps 730 mmHg 17%

    Day after tomorrow, 20 January, Saturday

    Time Temperature Precipitation Wind Pressure Humidity
    00:00 +34°C° 0 mm 7 mps 730 mmHg 18%
    01:00 +33°C° 0 mm 8 mps 729 mmHg 19%
    02:00 +32°C° 0 mm 7 mps 729 mmHg 21%
    03:00 +30°C° 0 mm 7 mps 729 mmHg 22%
    04:00 +30°C° 0 mm 6 mps 729 mmHg 24%
    05:00 +32°C° 0 mm 5 mps 729 mmHg 22%
    06:00 +33°C° 0 mm 5 mps 729 mmHg 21%
    07:00 +34°C° 0 mm 4 mps 729 mmHg 19%
    08:00 +36°C° 0 mm 4 mps 729 mmHg 17%
    09:00 +38°C° 0 mm 4 mps 729 mmHg 15%
    10:00 +41°C° 0 mm 4 mps 729 mmHg 13%
    11:00 +42°C° 0 mm 4 mps 728 mmHg 12%
    12:00 +43°C° 0 mm 5 mps 728 mmHg 11%
    13:00 +45°C° 0 mm 5 mps 727 mmHg 10%
    14:00 +43°C° 0 mm 5 mps 727 mmHg 10%
    15:00 +44°C° 0 mm 6 mps 726 mmHg 10%
    16:00 +44°C° 0 mm 6 mps 726 mmHg 10%
    17:00 +42°C° 0 mm 6 mps 726 mmHg 11%
    18:00 +41°C° 0 mm 6 mps 726 mmHg 11%
    19:00 +41°C° 0 mm 5 mps 726 mmHg 11%
    20:00 +39°C° 0 mm 5 mps 726 mmHg 13%
    21:00 +37°C° 0 mm 5 mps 727 mmHg 15%
    22:00 +36°C° 0 mm 5 mps 727 mmHg 17%
    23:00 +35°C° 0 mm 6 mps 727 mmHg 21%

    21 January, Sunday

    Time Temperature Precipitation Wind Pressure Humidity
    00:00 +34°C° 0 mm 7 mps 727 mmHg 25%
    01:00 +32°C° 0 mm 8 mps 727 mmHg 29%
    02:00 +30°C° 0 mm 7 mps 727 mmHg 31%
    03:00 +30°C° 0 mm 7 mps 727 mmHg 32%
    04:00 +29°C° 0 mm 6 mps 727 mmHg 34%
    05:00 +29°C° 0 mm 6 mps 727 mmHg 35%
    06:00 +29°C° 0 mm 6 mps 727 mmHg 36%
    07:00 +29°C° 0 mm 6 mps 728 mmHg 36%
    08:00 +32°C° 0 mm 5 mps 728 mmHg 33%
    09:00 +33°C° 0 mm 5 mps 728 mmHg 30%
    10:00 +34°C° 0 mm 4 mps 728 mmHg 28%
    11:00 +36°C° 0 mm 4 mps 727 mmHg 25%
    12:00 +37°C° 0 mm 4 mps 727 mmHg 23%
    13:00 +38°C° 0 mm 3 mps 726 mmHg 20%
    14:00 +38°C° 0 mm 3 mps 726 mmHg 18%
    15:00 +40°C° 0 mm 4 mps 725 mmHg 17%
    16:00 +40°C° 0 mm 4 mps 725 mmHg 15%
    17:00 +40°C° 0 mm 4 mps 725 mmHg 15%
    18:00 +38°C° 0 mm 3 mps 725 mmHg 15%
    19:00 +38°C° 0 mm 3 mps 725 mmHg 15%
    20:00 +37°C° 0.2 mm 5 mps 725 mmHg 18%
    21:00 +35°C° 0.2 mm 7 mps 726 mmHg 20%
    22:00 +34°C° 0.2 mm 9 mps 726 mmHg 22%
    23:00 +33°C° 0 mm 9 mps 726 mmHg 21%

    22 January, Monday

    Time Temperature Precipitation Wind Pressure Humidity
    00:00 +32°C° 0 mm 9 mps 725 mmHg 19%
    01:00 +31°C° 0 mm 10 mps 725 mmHg 18%
    02:00 +29°C° 0 mm 9 mps 725 mmHg 19%
    03:00 +28°C° 0 mm 9 mps 725 mmHg 19%
    04:00 +27°C° 0 mm 8 mps 725 mmHg 20%
    05:00 +28°C° 0 mm 8 mps 725 mmHg 18%
    06:00 +28°C° 0 mm 9 mps 725 mmHg 17%
    07:00 +29°C° 0 mm 9 mps 725 mmHg 15%
    08:00 +31°C° 0 mm 9 mps 725 mmHg 14%
    09:00 +33°C° 0 mm 9 mps 725 mmHg 12%
    10:00 +34°C° 0 mm 9 mps 725 mmHg 10%
    11:00 +35°C° 0 mm 9 mps 725 mmHg 9%
    12:00 +37°C° 0 mm 8 mps 724 mmHg 9%
    13:00 +38°C° 0 mm 8 mps 724 mmHg 8%
    14:00 +38°C° 0 mm 8 mps 724 mmHg 8%
    15:00 +38°C° 0 mm 8 mps 724 mmHg 8%
    16:00 +38°C° 0 mm 9 mps 723 mmHg 8%
    17:00 +37°C° 0 mm 9 mps 724 mmHg 9%
    18:00 +35°C° 0 mm 9 mps 724 mmHg 11%
    19:00 +34°C° 0 mm 10 mps 724 mmHg 12%
    20:00 +33°C° 0 mm 10 mps 725 mmHg 14%
    21:00 +31°C° 0 mm 11 mps 725 mmHg 16%
    22:00 +29°C° 0 mm 11 mps 725 mmHg 19%
    23:00 +28°C° 0 mm 11 mps 725 mmHg 20%

    23 January, Tuesday

    Time Temperature Precipitation Wind Pressure Humidity
    00:00 +27°C° 0 mm 10 mps 725 mmHg 22%
    01:00 +26°C° 0 mm 10 mps 725 mmHg 23%
    02:00 +24°C° 0 mm 9 mps 726 mmHg 24%
    03:00 +24°C° 0 mm 9 mps 726 mmHg 24%
    04:00 +23°C° 0 mm 8 mps 726 mmHg 25%
    05:00 +24°C° 0 mm 8 mps 727 mmHg 26%
    06:00 +24°C° 0 mm 7 mps 727 mmHg 27%
    07:00 +24°C° 0 mm 6 mps 728 mmHg 28%
    08:00 +26°C° 0 mm 6 mps 728 mmHg 26%
    09:00 +27°C° 0 mm 5 mps 728 mmHg 23%
    10:00 +28°C° 0 mm 4 mps 728 mmHg 21%
    11:00 +30°C° 0 mm 5 mps 727 mmHg 18%
    12:00 +32°C° 0 mm 5 mps 727 mmHg 16%
    13:00 +33°C° 0 mm 5 mps 727 mmHg 14%
    14:00 +33°C° 0 mm 5 mps 727 mmHg 13%
    15:00 +34°C° 0 mm 4 mps 727 mmHg 12%
    16:00 +34°C° 0 mm 4 mps 727 mmHg 12%
    17:00 +34°C° 0 mm 4 mps 727 mmHg 12%
    18:00 +33°C° 0 mm 5 mps 728 mmHg 12%
    19:00 +33°C° 0 mm 5 mps 728 mmHg 12%
    20:00 +30°C° 0 mm 6 mps 729 mmHg 16%
    21:00 +29°C° 0 mm 7 mps 730 mmHg 19%
    22:00 +27°C° 0 mm 8 mps 731 mmHg 23%
    23:00 +26°C° 0 mm 8 mps 731 mmHg 29%
    Show more